TimeMST,TemperatureF,Dew PointF,Humidity,Sea Level PressureIn,VisibilityMPH,Wind Direction,Wind SpeedMPH,Gust SpeedMPH,PrecipitationIn,Events,Conditions,WindDirDegrees,DateUTC
12:57 AM,66.9,35.1,31,29.83,10.0,Calm,Calm,-,N/A,,Clear,0,2013-10-23 07:57:00
1:57 AM,68.0,35.1,30,29.82,10.0,NNE,4.6,-,N/A,,Clear,30,2013-10-23 08:57:00
2:57 AM,64.0,37.9,38,29.81,10.0,Calm,Calm,-,N/A,,Clear,0,2013-10-23 09:57:00
3:57 AM,63.0,37.9,40,29.81,10.0,Calm,Calm,-,N/A,,Clear,0,2013-10-23 10:57:00
4:57 AM,63.0,36.0,37,29.81,10.0,Calm,Calm,-,N/A,,Clear,0,2013-10-23 11:57:00
5:57 AM,59.0,34.0,39,29.82,10.0,Calm,Calm,-,N/A,,Clear,0,2013-10-23 12:57:00
6:57 AM,60.1,33.1,36,29.83,10.0,ENE,3.5,-,N/A,,Clear,60,2013-10-23 13:57:00
7:57 AM,66.0,35.1,32,29.83,10.0,NNE,4.6,-,N/A,,Partly Cloudy,30,2013-10-23 14:57:00
8:57 AM,73.0,28.0,19,29.85,10.0,NNE,11.5,-,N/A,,Partly Cloudy,30,2013-10-23 15:57:00
9:57 AM,80.1,28.0,15,29.85,10.0,NNE,11.5,-,N/A,,Scattered Clouds,30,2013-10-23 16:57:00
10:57 AM,82.9,27.0,13,29.84,10.0,NNE,12.7,-,N/A,,Scattered Clouds,30,2013-10-23 17:57:00
11:57 AM,88.0,26.1,11,29.83,10.0,ENE,4.6,-,N/A,,Scattered Clouds,60,2013-10-23 18:57:00
12:57 PM,90.0,21.0,8,29.81,10.0,SE,3.5,-,N/A,,Scattered Clouds,140,2013-10-23 19:57:00
1:57 PM,91.0,21.9,8,29.79,10.0,Variable,3.5,-,N/A,,Scattered Clouds,0,2013-10-23 20:57:00
2:57 PM,91.0,21.9,8,29.78,10.0,South,6.9,-,N/A,,Mostly Cloudy,180,2013-10-23 21:57:00
3:57 PM,91.0,19.9,7,29.77,10.0,South,5.8,-,N/A,,Mostly Cloudy,180,2013-10-23 22:57:00
4:57 PM,90.0,21.9,8,29.77,10.0,Calm,Calm,-,N/A,,Mostly Cloudy,0,2013-10-23 23:57:00
5:57 PM,87.1,25.0,10,29.77,10.0,South,3.5,-,N/A,,Mostly Cloudy,180,2013-10-24 00:57:00
6:57 PM,82.9,30.0,15,29.77,10.0,Calm,Calm,-,N/A,,Mostly Cloudy,0,2013-10-24 01:57:00
7:57 PM,82.0,28.0,14,29.78,10.0,Calm,Calm,-,N/A,,Mostly Cloudy,0,2013-10-24 02:57:00
8:57 PM,78.1,32.0,19,29.79,10.0,Calm,Calm,-,N/A,,Mostly Cloudy,0,2013-10-24 03:57:00
9:57 PM,75.0,32.0,21,29.80,10.0,SSE,8.1,-,N/A,,Mostly Cloudy,160,2013-10-24 04:57:00
10:57 PM,73.0,30.9,21,29.81,10.0,South,6.9,-,N/A,,Scattered Clouds,180,2013-10-24 05:57:00
11:57 PM,73.9,33.1,22,29.81,10.0,SE,8.1,-,N/A,,Clear,140,2013-10-24 06:57:00